Flag for Germany Weather past 2 weeks in Bad Vilbel, Hesse, Germany

Now
41 °F

Light rain. Overcast.


Feels Like: 36 °F
Forecast: 40 / 47 °F
Wind: 7 mph from West

Location: Frankfurt / M-Flughafen

Current Time: Mar 26, 2015 at 8:20:35 PM

Latest Report: Mar 26, 2015 at 8:00 PM


Visibility: 9 mi

Pressure: 29.85 "Hg

Humidity: 89%

Dew point: 38 °F

Location of Bad VilbelLocation

Historic Weather in Bad Vilbel — Graph

°F

Bad Vilbel temperature yesterday

Maximum temperature yesterday: 63 °F (at 3:00 PM)
Minimum temperature yesterday: 41 °F (at 1:00 AM)
Average temperature yesterday: 50 °F

Past Weeks' High & Low Weather Summary

 TemperatureHumidityPressure
High64 °F (Mar 18, 4:00 PM)98% (Mar 12, 6:00 AM)30.49 "Hg (Mar 12, 6:00 AM)
Low28 °F (Mar 12, 6:00 AM)32% (Mar 26, 5:00 PM)29.60 "Hg (Mar 25, 3:00 PM)
Average45 °F69%30.15 "Hg
* Reported Mar 11 7:00 PM — Mar 26 7:00 PM, Bad Vilbel, Weather by CustomWeather, © 2015

Note: Actual official high and low records may vary slightly from our data, if they occured in-between our weather recording intervals... More about our weather records

Advertising

Bad Vilbel weather history for previous 24 hours

 ConditionsComfort  
Time TempWeatherWind HumidityBarometerVisibility
7:00 PM
Thu, Mar 26
45 °FLight rain. Overcast.13 mph66%29.82 "Hg8 mi
6:00 PM51 °FOvercast.6 mph34%29.77 "Hg19 mi
5:00 PM52 °FOvercast.7 mph32%29.76 "Hg19 mi
3:00 PM52 °FPartly sunny.6 mph49%29.78 "Hg19 mi
2:00 PM51 °FPartly sunny.7 mph51%29.79 "Hg16 mi
1:00 PM48 °FOvercast.6 mph61%29.81 "Hg12 mi
12:00 PM47 °FOvercast.3 mph66%29.82 "Hg11 mi
11:00 AM45 °FOvercast.3 mph73%29.83 "Hg9 mi
9:00 AM44 °FLight rain. Overcast.5 mph79%29.83 "Hg6 mi
8:00 AM44 °FOvercast.5 mph77%29.81 "Hg4 mi
7:00 AM44 °FOvercast.6 mph77%29.80 "Hg4 mi
6:00 AM44 °FOvercast.5 mph80%29.79 "Hg6 mi
5:00 AM44 °FOvercast.5 mph77%29.76 "Hg6 mi
3:00 AM44 °FOvercast.6 mph76%29.74 "Hg7 mi
2:00 AM44 °FOvercast.3 mph76%29.73 "Hg7 mi
1:00 AM45 °FOvercast.5 mph75%29.72 "Hg7 mi
12:00 AM45 °FOvercast.6 mph75%29.72 "Hg7 mi
11:00 PM
Wed, Mar 25
45 °FOvercast.7 mph76%29.72 "Hg6 mi
10:00 PM45 °FOvercast.7 mph78%29.70 "Hg6 mi
9:00 PM46 °FOvercast.7 mph74%29.70 "Hg6 mi
8:00 PM47 °FOvercast.8 mph72%29.68 "Hg6 mi
Weather by CustomWeather, © 2015

See weather overviewHow to use our weather pages